Погода в Чурапче

Погода в Чурапче : погода сейчас, прогноз погоды и архив. Всё, что Вы хотите узнать о погоде в Чурапче!

Хотите узнать прогноз погоды в Чурапче? Тогда Вам сюда: Погода в Чурапче

Поиск расширенной информации на нашем сайте:

Другие новости

Новости СМИ2

Главная страница сайта

Новости сайта

03.07.2017

Напоминаем, что на нашем специализированном сайте Метеоцентр.Азия вы можете получить высокодетализированные автоматические прогнозы погоды по пунктам России, СНГ и мира в авиационном формате (включающие направление и скорость ветра, видимость, явления погоды, количество и форму облачности, нижнюю и верхнюю границу облачности).


Погода в Чурапче - сегодня

Время (UTC), дата Ветер
(°,м/с) 
Видим.   Явления Облачность Т
(°С)
Тd
(°С)
f(%) Тe
(°С)
Pmin
(гПа)
dP
(гПа)
Po
(мм)
O2
(г/м3)
Тmin Tmax R s Состояние
почвы
06 23.04.18 160 (Ю) 20000 м    8/0 верхняя 
[Ci sp]
+7.9 -8.2 31 +7  1012.2  -2.3  743  292           
09 23.04.18 150 (ЮВ) 20000 м    9/0 средняя 
[Ac trans]
+7 -9 31 +6  1010.5  -1.7  742  292           
12 23.04.18 140 (ЮВ) 20000 м    9/9 600 м 
[Sc]
+5 -7.7 39 +3  1009.6  -1.1  741  294    +9       
15 23.04.18 140 (ЮВ) 10 км    9/9 600 м 
[Sc]
+4.2 -9.2 37 +2  1007.1  -2.5  739  294           
18 23.04.18 140 (ЮВ) 10 км    9/9 600 м 
[Sc]
+3.6 -8.7 40 +2  1003.6  -3.4  737  294           
21 23.04.18 220 (ЮЗ) 4000 м  слаб. снег  10/10 600 м 
[Sc]
+2.9 -7.1 48 +2  1001.6  -2  735  294           
09 24.04.18 270 (З) 5{11}  20000 м    9/9 600 м 
[Sc diur, vesp]
-0.2 -10.6 45 -3  1006  0.6  738  299           
12 24.04.18 290 (З) 20000 м    6/6 600 м 
[Sc]
-2.9 -11.9 50 -2  1006.8  0.6  739  302    +2.8  0.3     
15 24.04.18 290 (З) 20000 м    3/0 верхняя 
[Ci sp]
-5.3 -13.2 54 -7  1006.9  -0.1  738  305           
18 24.04.18 270 (З) 20000 м    3/0 верхняя 
[Ci sp]
-7.8 -12.2 71 -9  1007  -0.1  738  307           
21 24.04.18 220 (ЮЗ) 20000 м    9/0 верхняя 
[Ci sp]
-9.8 -11.9 85 -10  1007.2  738  310           
00 25.04.18 300 (СЗ) 20000 м    8/5 600 м верхняя 
[Cu hum|Ci fib]
-3.2 -11.3 53 -4  1006.6  738  302  -10.5      15  мокрый или
старый снег
50-90% 
03 25.04.18 270 (З) 20000 м    9/6 600 м кучево-дожд., верхняя 
[Cb cap|Ci fib]
-1.9 -12.2 45 -3  1006.7  0.2  739  301           
06 25.04.18 120 (ЮВ) 20000 м  {ливн. осадки}  9/9 600 м кучево-дожд. 
[Cb cap]
-2.6 -10.4 55 -2  1007.5  0.7  739  302           
09 25.04.18 320 (СЗ) 10 км  в посл. час снег  9/9 600 м кучево-дожд. 
[Cb cap]
-4.2 -6.1 87 -5  1009.2  1.5  740  304           
15 25.04.18 290 (З) 20000 м    4/4 600 м 
[Sc]
-8 -14.1 61 -11  1011.8  0.7  742  309           
18 25.04.18 290 (З) 20000 м    3/0 верхняя 
[Ci fib]
-9.2 -14.7 64 -13  1012.6  0.7  742  311           
21 25.04.18 280 (З) 20000 м    3/0 верхняя 
[Ci fib]
-9.7 -15.5 63 -13  1013.5  0.9  743  312           
00 26.04.18 280 (З) 20000 м    9/0 верхняя 
[Ci fib]
-6.6 -14.3 54 -10  1013.9  0.6  743  308  -9.7      16  равномерный
мокрый или
старый снег
100% 
03 26.04.18 270 (З) 20000 м    8/0 верхняя 
[Ci fib]
-1.9 -14 39 -5  1013.2  -0.3  743  303           
06 26.04.18 280 (З) 20000 м    1/0 верхняя 
[Ci fib]
+0.6 -13.5 34 -2  1011.5  -1.5  742  300           
09 26.04.18 320 (СЗ) 20000 м    ясно 
+1.4 -13.6 32 +1  1011.3  -0.1  742  299           
12 26.04.18 280 (З) 20000 м    1/0 верхняя 
[Ci fib]
-2.5 -15.3 37 -4  1011.4  -0.2  742  303    +1.8       
15 26.04.18 тихо ()   20000 м    3/0 верхняя 
[Ci fib]
-7.5 -13.4 63 -8  1010.8  -1  741  308           
18 26.04.18 тихо ()   20000 м    ясно 
-10.6 -15.5 67 -11  1010.6  -0.5  741  312           
Время (UTC), дата Ветер
(°,м/с) 
Видим.   Явления Облачность Т
(°С)
Тd
(°С)
f(%) Тe
(°С)
Pmin
(гПа)
dP
(гПа)
Po
(мм)
O2
(г/м3)
Тmin Tmax R s Состояние
почвы

Для получения пояснительной информации подведите курсор к названию столбца.

ПОГОДА в Чурапче - архив

Всё, что Вы хотите узнать о погоде в Чурапче - удобно и подробно!

Выберите нужную дату (начиная с 1 января 2015* года) и нажмите кнопку "Найти".
Будут отображены архивные сводки погоды по пункту Чурапча, начиная с указанной даты.


Отображать данные в формате CSV (для использования в таблицах Excel)


Внимание! Наш архив погоды предназначен исключительно для личного некоммерческого использования в познавательных целях. Если Вам необходимы официальные справки о состоянии погоды (для производственных, юридических, коммерческих и т.п. целей), обращайтесь в органы Росгидромета.

*Примечание: данная дата относится к архиву по метеостанциям СССР (Россия, СНГ, Балтия).
Архив по метеостанциям Зарубежной Европы и Азии (кроме Китая) хранится 10 дней, по другим регионам земного шара (Китай, Африка, Америка, Австралия, Океания) - 1 день.

Чурапча - район местоположения метеостанции


Название, широта, долгота, высота метеостанции:
Чурапча 62°ш. 132.6°д. 186 м над ур. моря [Российская Федерация]

Дополнительная информация

В oтличие oт бoльшинства пoгoдных сайтoв мы публикуем пoдрoбную метеoинфoрмацию в детальнoм прoфессиoнальнoм фoрмате.

Характеристики температуры и влажнoсти вoздуха измеряются на высoте 2 м в тени вдали oт зданий и деревьев.
Скoрoсть ветра измеряется на высoте 10 м (на урoвне рoста челoвека скoрoсть ветра ниже в 1.5-2 раза). Если метеoстанция нахoдится в гoрoде или в лесу, тo скoрoсть ветра занижена на 2-4 м/с пo сравнению с oткрытым местoм. Скoрoсть ветра над акватoриями крупных рек и oзёр, а также на вершинах хoлмoв на 2-5 м/с выше, чем в oбычных услoвиях.
Атмoсфернoе давление в разных тoчках местнoсти мoжет значительнo oтличаться oт давления на метеoстанции, в зависимoсти oт услoвий рельефа (при пoдъёме на 10 м давление пoнижается примернo на 1 мм рт.ст.).